Location: Shepherdstown, WV
(39.4326°N, 77.8042°W)
Time: 10:55:22
(UTC-04:00)

Vanguard 2 Rocket - Pass Details

Date: 09 August 2021
Orbit: 556 x 3324 km, 32.9° (Epoch: 20 September)

Event Time Altitude Azimuth Distance (km) Brightness Sun altitude
Exits shadow 04:41:41 18° 202° (SSW) 2,841 8.9 -17.0°
Maximum altitude 04:45:35 25° 165° (SSE) 2,046 8.5 -16.5°
Drops below altitude 10° 04:50:17 10° 110° (ESE) 2,455 9.6 -15.7°
Sets 04:52:43 0° 96° (E) 3,156 10.5 -15.4°
